Regional Weather Roundup
Issued by NWS

Home | Current Version | Previous Version | Text Only | Print | Product List | Glossary On
Versions: 1 2 3 4 5 6 7 8 9 10 11 12 13 14 15 16 17 18 19 20 21 22 23 24 25 26 27 28 29 30 31 32 33 34 35 36 37 38 39 40 41 42 43 44 45 46 47 48 49 50
000
ASUS42 KKEY 010110
RWRKEY

FLORIDA REGIONAL WEATHER ROUNDUP FOR THE FLORIDA KEYS
NATIONAL WEATHER SERVICE KEY WEST FLORIDA
900 PM EDT THU JUL 31 2014

...SOUTH FLORIDA AND THE KEYS...

CITY           SKY/WX    TMP DP  RH WIND       PRES   REMARKS
FORT MYERS     FAIR      83  76  79 VRB3      29.97S HX  91
SW REGIONAL AP CLOUDY    80  75  84 VRB5      29.98R
NAPLES         FAIR      83  78  85 E6        29.98R HX  93
MIAMI          MOCLDY    78  75  90 CALM      30.00F
WEST KENDALL   MOCLDY    79  75  87 W5        30.00F
HOMESTEAD      FAIR      78  74  88 W2        30.00F
MARATHON       CLEAR     86  74  67 CALM      30.00R HX  94
BOCA CHICA NAS MOCLDY    84  76  76 CALM      29.99S HX  93
KEY WEST INTL  CLEAR     85  74  69 E3        29.99S HX  92

...INTERNATIONAL WEATHER...

CITY           SKY/WX    TMP DP  RH WIND       PRES   REMARKS
NASSAU BAHAMAS PTCLDY    84  73  70 E5        30.02R HX  91
CANCUN MEXICO  PTCLDY    82  75  78 E2        29.97R
COZUMEL MEXICO CLEAR     79  73  83 E3        29.97S

ADJACENT COASTAL WATERS...

STATION/POSITION TIME  SKY/WX   TEMP    WIND        PRES    WAVE
                                AIR SEA DIR/SP/G            HT/PER
                 (UTC)          (F)     (DEG/KT/KT) (MB)    (FT/S)
PULASKI SHOAL LI 0100            85      90/  1/  4 1015.4S
SAND KEY         0100            85      30/  4/  5 1015.6R
SOMBRERO KEY     0100            86     210/  3/  4 1016.6S
LONG KEY         NOT AVBL
MOLASSES REEF    0100            83 87  360/  4/  5 1015.9F
FOWEY ROCKS      0100            82 86  310/  3/  3 1016.2F
Buoy 42080       NOT AVBL

$$


USA.gov is the U.S. government's official web portal to all federal, state and local government web resources and services.